Location: Krasnoyarskiy Pitomnik
(51.1333°N, 71.6167°E)
Time: 18:42:23
(UTC+00:00)

Vanguard 2 - Pass Details

Date: 25 April 2024
Orbit: 553 x 2914 km, 32.9° (Epoch: 22 May)

Event Time Altitude Azimuth Distance (km) Brightness Sun altitude
Exits shadow 22:31:14 11° 247° (WSW) 5,076 11.1 -12.1°
Maximum altitude 22:44:43 38° 188° (S) 3,837 10.7 -10.4°
Drops below altitude 10° 22:59:51 10° 129° (SE) 5,568 12.1 -8.5°
Sets 23:04:19 0° 122° (ESE) 6,405 12.6 -7.9°
